x

West Sea Otter (46204) Wave Buoy

10:00pm - Sat 19th Apr 2014 All times are PDT. -7 hours from GMT.

  • Sig Wave height 20.7ft
  • Peak Period 14s
  • Wind
    25mph, 31mph gusts
  • Air Temp 46°f
  • Sea Pressure 1011.3mb
  • West Sea Otter
  • West Sea Otter

More Historic Weather Station data

Upgrade to MSW Pro to gain access to the past 30 days of data for over 8000 Wavebouys and Weather Stations around the globe.

Join Pro

Comparision Forecast

View Surf forecast
   
Sat 04/19 10:00pm 20.5ft 14s 25 31 mph 1011.3mb 46f
9:00pm 19.5ft 14s 20 25 mph 1009.8mb 48f
8:00pm 18ft 14s 22 27 mph 1008.1mb 47f
7:00pm 14.5ft 11s 22 27 mph 1006.8mb 47f
6:00pm 12.5ft 11s 25 29 mph 1005.2mb 47f
5:00pm 13ft 11s 25 31 mph 1003.4mb 47f
4:00pm 12ft 12s 25 29 mph 1001.6mb 47f
3:00pm 13ft 11s 27 34 mph 1000mb 47f
2:00pm 13ft 11s 31 36 mph 998.5mb 46f
1:00pm 14ft 10s 34 40 mph 997.3mb 47f
12:00pm 16.5ft 10s 38 49 mph 996.7mb 47f
11:00am 16.5ft 12s 38 49 mph 996.4mb 48f
10:00am 15ft 11s 40 49 mph 996.3mb 48f
9:00am 16ft 10s 38 49 mph 996.5mb 48f
8:00am 14ft 11s 40 49 mph 996.8mb 48f
7:00am 13ft 10s 38 47 mph 997.3mb 48f
6:00am 12ft 6s 38 47 mph 997.9mb 48f
5:00am 11.5ft 7s 36 45 mph 998.6mb 48f
4:00am 11ft 7s 34 43 mph 999.8mb 49f
3:00am 10.5ft 7s 34 45 mph 1000.9mb 48f
2:00am 9.5ft 5s 36
mph
1000.8mb 48f
1:00am 9ft 6s 36 47 mph 1002.9mb 47f
12:00am 8ft 7s 36 47 mph 1003.9mb 48f
Fri 04/18 11:00pm 7.5ft 8s 27 34 mph 1005.7mb 48f
10:00pm 8ft 6s 22 27 mph 1007.6mb 48f
9:00pm 7.5ft 6s 25 29 mph 1008.9mb 48f
8:00pm 7.5ft 10s 20 25 mph 1010mb 48f
7:00pm 7.5ft 11s 20 25 mph 1010.8mb 48f
6:00pm 7.5ft 10s 25 29 mph 1011.8mb 47f
5:00pm 7.5ft 10s 22 27 mph 1013mb 48f
4:00pm 7.5ft 10s 22 27 mph 1013.4mb 47f
3:00pm 8.5ft 10s 20 25 mph 1014.2mb 47f
2:00pm 9ft 9s 20 25 mph 1014.5mb 47f
1:00pm 9.5ft 10s 18 25 mph 1014.4mb 47f
12:00pm 8ft 10s 22 27 mph 1014.6mb 46f
11:00am 7.5ft 9s 22 27 mph 1014.7mb 44f
10:00am 7.5ft 9s 20 22 mph 1014.8mb 44f
9:00am 8ft 10s 16 18 mph 1014.8mb 44f
8:00am 8ft 11s 13 16 mph 1014.7mb 43f
7:00am 8ft 11s 11 16 mph 1014.4mb 43f
6:00am 8ft 11s 13 16 mph 1013.8mb 44f
5:00am 8ft 11s 4 9 mph 1013.5mb 44f
4:00am 8ft 11s 9 13 mph 1013.2mb 45f
3:00am 9ft 12s 7 9 mph 1013mb 46f
2:00am 10ft 10s 7 9 mph 1012.9mb 46f
1:00am 9ft 11s 7 9 mph 1012.7mb 46f
12:00am 9ft 10s 11 16 mph 1012.4mb 46f
Thu 04/17 11:00pm 10ft 10s 11 16 mph 1012mb 46f
10:00pm 9.5ft 10s 13 16 mph 1011.4mb 46f
9:00pm 9ft 10s 16 20 mph 1011mb 46f
8:00pm 8.5ft 10s 16 20 mph 1010.4mb 46f
7:00pm 8.5ft 11s 16 20 mph 1010mb 46f
6:00pm 8ft 11s 16 20 mph 1009.7mb 47f
5:00pm 8.5ft 9s 18 22 mph 1009.2mb 46f
4:00pm 8.5ft 9s 16 20 mph 1008.7mb 47f
3:00pm 8.5ft 10s 13 16 mph 1008.3mb 47f
2:00pm 9ft 8s 16 20 mph 1007.8mb 47f
1:00pm 9ft 11s 13 18 mph 1007.3mb 47f
12:00pm 9.5ft 11s 11 16 mph 1006.8mb 47f
11:00am 9ft 9s 11 16 mph 1006.3mb 47f
10:00am 9ft 11s 7 11 mph 1005.8mb 47f
9:00am 9ft 11s 13 18 mph 1005.3mb 47f
8:00am 9ft 11s 13 18 mph 1004.7mb 46f
7:00am 9.5ft 10s 13 18 mph 1003.8mb 47f
6:00am 10ft 12s 16 20 mph 1003mb 47f
5:00am 12ft 11s 20 27 mph 1001.8mb 47f
4:00am 11ft 11s 22 27 mph 1000.4mb 47f
3:00am 10ft 12s 31 36 mph 999.4mb 47f
2:00am 9ft 11s 29 36 mph 1000.1mb 47f
1:00am 9.5ft 6s 29 36 mph 1001mb 47f
12:00am 10ft 7s 29 36 mph 1002.1mb 47f
Wed 04/16 11:00pm 9.5ft 12s 27 34 mph 1003.4mb 47f
10:00pm 8ft 12s 34 43 mph 1003.8mb 48f
9:00pm 8ft 11s 29 36 mph 1005.1mb 48f
8:00pm 7ft 10s 27 31 mph 1005.9mb 48f
7:00pm 7ft 11s 22 27 mph 1006.9mb 48f
6:00pm 7ft 12s 20 25 mph 1007.7mb 47f
5:00pm 7ft 11s 20 22 mph 1008.2mb 47f
4:00pm 7ft 11s 18 22 mph 1008.5mb 47f
3:00pm 6.5ft 11s 16 20 mph 1009.1mb 47f
2:00pm 8ft 11s 16 18 mph 1009mb 47f
1:00pm 8ft 12s 25 29 mph 1009mb 46f
12:00pm 8.5ft 6s 25 29 mph 1009.6mb 46f
11:00am 9ft 6s 27 34 mph 1009.6mb 46f
10:00am 9ft 6s 31 38 mph 1009.2mb 47f
9:00am 9ft 6s 29 36 mph 1009.3mb 46f
8:00am 8.5ft 6s 31 38 mph 1009.3mb 46f
7:00am 8ft 6s 27 36 mph 1010.1mb 46f